Voltar ao catálogo

DELTA 1 DEB

AtivoLEO
NORAD 10757·DEBRIS·🇺🇸 United States

Lançado Jul 29, 1976 de Vandenberg Space Force Base

Loading…

Próximas Passagens (próximas 24 horas)

TLE

AtualizadoSource: Space-Track

Época: Sep 14, 2026, 01:00 UTC

1 10757U 76077BE  26257.04180471  .00000432  00000-0  53658-2 0  9992
2 10757 101.9128 295.2589 0232033 252.0409 134.8351 12.00609929194354

Acompanhe DELTA 1 DEB em tempo real com AllMySat

Download on the App Store